カタログに戻る

USA 462

運用中軍事VLEO
NORAD 62361·PAYLOAD·🇺🇸 United States

打ち上げ Dec 17, 2024 から Vandenberg Space Force Base

Loading…

次のパス (今後24時間)

TLE

古いSource: Mike McCants

元期: Aug 12, 2026, 21:17 UTC

1 62361U 24243X   26224.88701016 0.00000000  00000-0  00000-0 0    03
2 62361  70.0190 139.5749 0002000 270.4481  89.5519 14.96713300    04

AllMySatでUSA 462をリアルタイム追跡

Download on the App Store